This is the latest recevied weather packets stored in our database for station/object N5TDX. If no packets are shown the sender has not sent any weather packets the latest 1 day(s).
| Time | Temp. | Humidity | Pressure | Rain* | Wind** | Luminosity | Snow |
|---|---|---|---|---|---|---|---|
| 1778025645 | 25° C | 56% | 1002.5 hPa | 0 mm | 0.45 m/s, 355° | - | - |
| 1778025343 | 25.56° C | 55% | 1002.3 hPa | 0 mm | 0.45 m/s, 59° | - | - |
| 1778025039 | 25.56° C | 54% | 1002.3 hPa | 0 mm | 0.89 m/s, 21° | - | - |
| 1778024736 | 26.11° C | 54% | 1001.9 hPa | 0 mm | 0.45 m/s, 61° | - | - |
| 1778024433 | 26.11° C | 55% | 1002.2 hPa | 0 mm | 0.45 m/s, 57° | - | - |
| 1778024130 | 26.11° C | 54% | 1001.8 hPa | 0 mm | 0.89 m/s, 345° | - | - |
| 1778023828 | 26.67° C | 54% | 1002 hPa | 0 mm | 0.89 m/s, 299° | - | - |
| 1778023526 | 26.67° C | 54% | 1001.7 hPa | 0 mm | 0.89 m/s, 46° | - | - |
| 1778023223 | 26.67° C | 54% | 1001.7 hPa | 0 mm | 0.89 m/s, 28° | - | - |
| 1778022920 | 26.67° C | 55% | 1001.7 hPa | 0 mm | 0.89 m/s, 49° | - | - |
| 1778022618 | 27.22° C | 54% | 1001.7 hPa | 0 mm | 0.89 m/s, 1° | - | - |
| 1778022315 | 27.78° C | 54% | 1001.6 hPa | 0 mm | 1.79 m/s, 33° | - | - |
| 1778022012 | 28.33° C | 54% | 1001.6 hPa | 0 mm | 1.34 m/s, 83° | - | - |
| 1778021709 | 28.33° C | 54% | 1001.5 hPa | 0 mm | 1.79 m/s, 60° | - | - |
| 1778021405 | 29.44° C | 52% | 1001.5 hPa | 0 mm | 0.45 m/s, 72° | - | - |
| 1778021102 | 29.44° C | 48% | 1001.4 hPa | 0 mm | 0 m/s | - | - |
| 1778020799 | 30° C | 44% | 1001.3 hPa | 0 mm | 0.45 m/s, 219° | - | - |
| 1778020496 | 30.56° C | 42% | 1001.5 hPa | 0 mm | 0.45 m/s, 337° | - | - |
| 1778020192 | 30.56° C | 44% | 1001.1 hPa | 0 mm | 0 m/s | - | - |
| 1778019889 | 30.56° C | 44% | 1001.2 hPa | 0 mm | 0.45 m/s, 62° | - | - |
| 1778019584 | 30.56° C | 42% | 1001 hPa | 0 mm | 0.45 m/s, 5° | - | - |
| 1778019282 | 31.11° C | 42% | 1001.2 hPa | 0 mm | 0.89 m/s, 52° | - | - |
| 1778018979 | 32.22° C | 40% | 1001.1 hPa | 0 mm | 0.89 m/s, 55° | - | - |
| 1778018676 | 33.33° C | 39% | 1000.7 hPa | 0 mm | 0.45 m/s, 293° | - | - |
| 1778018373 | 32.78° C | 42% | 1000.8 hPa | 0 mm | 0 m/s | - | - |
* Rain latest hour (hover to see other rain measurements)
** Current wind speed in m/s (hover to see current wind gust speed)